| time (UTC) | temp C | wind direction | speed KPH | gust KPH | rain 1hr cm | rain 24hr cm | rain mn cm | humidity % | barometer mb |
| 20260502195003 | 12 | 74 | 1.6 | 3.2 | 0.13 | 0.86 | 0.86 | 93 | 1008.8 |
| 20260502194503 | 12 | 110 | 1.6 | 4.8 | 0.10 | 0.86 | 0.86 | 93 | 1008.7 |
| 20260502194003 | 12 | 128 | 1.6 | 4.8 | 0.10 | 0.84 | 0.84 | 93 | 1008.8 |
| 20260502193503 | 12 | 65 | 1.6 | 6.4 | 0.05 | 0.79 | 0.79 | 93 | 1008.8 |
| 20260502193003 | 12 | 101 | 3.2 | 6.4 | 0.03 | 0.76 | 0.76 | 93 | 1008.7 |
| 20260502192503 | 12 | 148 | 1.6 | 6.4 | 0.03 | 0.76 | 0.76 | 93 | 1008.9 |
| 20260502192003 | 12 | 107 | 1.6 | 3.2 | 0.03 | 0.76 | 0.76 | 93 | 1008.8 |
| 20260502191503 | 12 | 100 | 0.0 | 3.2 | 0.03 | 0.76 | 0.76 | 92 | 1008.8 |
| 20260502191003 | 12 | 115 | 1.6 | 3.2 | 0.03 | 0.76 | 0.76 | 92 | 1008.6 |
| 20260502190504 | 12 | 84 | 0.0 | 3.2 | 0.03 | 0.76 | 0.76 | 92 | 1008.6 |
| 20260502190004 | 12 | 55 | 0.0 | 3.2 | 0.03 | 0.76 | 0.76 | 92 | 1008.6 |
| 20260502185503 | 12 | 48 | 0.0 | 3.2 | 0.00 | 0.76 | 0.76 | 92 | 1008.5 |
| 20260502185003 | 12 | 43 | 0.0 | 3.2 | 0.00 | 0.76 | 0.76 | 92 | 1008.6 |
| 20260502184503 | 12 | 57 | 0.0 | 3.2 | 0.00 | 0.76 | 0.76 | 92 | 1008.3 |
| 20260502184213 | 12 | 72 | 0.0 | 3.2 | 0.03 | 0.76 | 0.76 | 92 | 1008.3 |
| 20260502183503 | 12 | 62 | 0.0 | 3.2 | 0.05 | 0.76 | 0.76 | 92 | 1008.6 |
| 20260502183003 | 12 | 84 | 0.0 | 3.2 | 0.08 | 0.76 | 0.76 | 92 | 1008.4 |
| 20260502182503 | 12 | 101 | 0.0 | 3.2 | 0.08 | 0.74 | 0.74 | 91 | 1008.5 |
| 20260502182003 | 12 | 94 | 0.0 | 3.2 | 0.08 | 0.74 | 0.74 | 91 | 1008.6 |
| 20260502181503 | 12 | 86 | 0.0 | 3.2 | 0.10 | 0.74 | 0.74 | 91 | 1008.6 |
| 20260502181003 | 12 | 101 | 1.6 | 3.2 | 0.10 | 0.74 | 0.74 | 91 | 1008.9 |
| 20260502180714 | 12 | 114 | 0.0 | 3.2 | 0.15 | 0.74 | 0.74 | 91 | 1009.0 |
| 20260502170503 | 13 | 59 | 0.0 | 3.2 | 0.56 | 0.58 | 0.58 | 88 | 1009.8 |
| 20260502164003 | 14 | 120 | 0.0 | 3.2 | 0.25 | 0.25 | 0.25 | 85 | 1010.3 |
| 20260502163503 | 14 | 105 | 0.0 | 3.2 | 0.20 | 0.20 | 0.20 | 83 | 1009.7 |
| 20260502163003 | 15 | 113 | 0.0 | 3.2 | 0.18 | 0.18 | 0.18 | 82 | 1009.7 |
| 20260502162503 | 15 | 133 | 0.0 | 3.2 | 0.15 | 0.15 | 0.15 | 81 | 1009.8 |
| 20260502162003 | 15 | 128 | 0.0 | 3.2 | 0.10 | 0.10 | 0.10 | 79 | 1009.8 |
| 20260502161503 | 16 | 99 | 0.0 | 1.6 | 0.10 | 0.10 | 0.10 | 78 | 1009.6 |
| 20260502161003 | 16 | 126 | 0.0 | 3.2 | 0.05 | 0.05 | 0.05 | 74 | 1009.9 |
| 20260502160503 | 16 | 153 | 1.6 | 3.2 | 0.03 | 0.03 | 0.03 | 72 | 1009.8 |
| 20260502151503 | 17 | 360 | 1.6 | 6.4 | 0.00 | 0.00 | 0.00 | 61 | 1009.8 |
| 20260502151004 | 17 | 342 | 1.6 | 4.8 | 0.00 | 0.00 | 0.00 | 61 | 1010.0 |
| 20260502150503 | 17 | 17 | 1.6 | 4.8 | 0.00 | 0.00 | 0.00 | 61 | 1010.1 |
| 20260502130503 | 19 | 177 | 1.6 | 6.4 | 0.00 | 0.00 | 0.00 | 50 | 1011.9 |
| 20260502130215 | 20 | 198 | 1.6 | 6.4 | 0.00 | 0.00 | 0.00 | 49 | 1012.1 |
| 20260502123503 | 18 | 159 | 1.6 | 6.4 | 0.00 | 0.00 | 0.00 | 51 | 1012.5 |
| 20260502123003 | 20 | 158 | 1.6 | 6.4 | 0.00 | 0.00 | 0.00 | 49 | 1012.6 |
| 20260502122503 | 20 | 190 | 1.6 | 6.4 | 0.00 | 0.00 | 0.00 | 48 | 1012.5 |
| 20260502122214 | 19 | 182 | 1.6 | 8.0 | 0.00 | 0.00 | 0.00 | 51 | 1012.6 |
| 20260502121503 | 20 | 176 | 1.6 | 8.0 | 0.00 | 0.00 | 0.00 | 50 | 1012.7 |
| 20260502121003 | 18 | 184 | 1.6 | 6.4 | 0.00 | 0.00 | 0.00 | 52 | 1012.6 |
| 20260502120503 | 20 | 187 | 3.2 | 6.4 | 0.00 | 0.00 | 0.00 | 51 | 1012.7 |
| 20260502115503 | 18 | 338 | 1.6 | 6.4 | 0.00 | 0.00 | 0.00 | 55 | 1012.9 |
| 20260502115003 | 18 | 355 | 1.6 | 6.4 | 0.00 | 0.00 | 0.00 | 56 | 1012.9 |
| 20260502114715 | 17 | 101 | 1.6 | 6.4 | 0.00 | 0.00 | 0.00 | 56 | 1012.9 |
| 20260502114213 | 17 | 154 | 1.6 | 6.4 | 0.00 | 0.00 | 0.00 | 55 | 1013.1 |
| 20260502113503 | 17 | 188 | 1.6 | 6.4 | 0.00 | 0.00 | 0.00 | 56 | 1013.3 |
| 20260502113003 | 17 | 212 | 1.6 | 6.4 | 0.00 | 0.00 | 0.00 | 57 | 1013.2 |
| 20260502112717 | 18 | 168 | 1.6 | 6.4 | 0.00 | 0.00 | 0.00 | 56 | 1013.3 |
| 20260502112004 | 18 | 166 | 1.6 | 6.4 | 0.00 | 0.00 | 0.00 | 54 | 1013.6 |
| 20260502111503 | 17 | 196 | 1.6 | 6.4 | 0.00 | 0.00 | 0.00 | 58 | 1013.4 |
| 20260502111216 | 17 | 195 | 1.6 | 6.4 | 0.00 | 0.00 | 0.00 | 58 | 1013.6 |
| 20260502110503 | 18 | 175 | 3.2 | 9.7 | 0.00 | 0.00 | 0.00 | 54 | 1013.6 |
| 20260502110003 | 17 | 172 | 3.2 | 9.7 | 0.00 | 0.00 | 0.00 | 54 | 1013.9 |
| 20260502105503 | 17 | 178 | 1.6 | 6.4 | 0.00 | 0.00 | 0.00 | 57 | 1013.9 |
| 20260502105003 | 16 | 352 | 1.6 | 4.8 | 0.00 | 0.00 | 0.00 | 58 | 1013.9 |
| 20260502104503 | 16 | 133 | 1.6 | 4.8 | 0.00 | 0.00 | 0.00 | 57 | 1013.9 |
| 20260502104003 | 17 | 170 | 1.6 | 3.2 | 0.00 | 0.00 | 0.00 | 54 | 1014.0 |
| 20260502103503 | 17 | 181 | 1.6 | 8.0 | 0.00 | 0.00 | 0.00 | 54 | 1014.1 |
| 20260502103214 | 17 | 181 | 1.6 | 8.0 | 0.00 | 0.00 | 0.00 | 56 | 1014.1 |
| 20260502102503 | 17 | 202 | 1.6 | 6.4 | 0.00 | 0.00 | 0.00 | 57 | 1014.1 |
| 20260502102215 | 17 | 202 | 1.6 | 6.4 | 0.00 | 0.00 | 0.00 | 58 | 1014.3 |
| 20260502101713 | 18 | 173 | 1.6 | 6.4 | 0.00 | 0.00 | 0.00 | 56 | 1014.3 |
| 20260502101003 | 17 | 167 | 1.6 | 4.8 | 0.00 | 0.00 | 0.00 | 56 | 1014.3 |
| 20260502100503 | 17 | 156 | 1.6 | 4.8 | 0.00 | 0.00 | 0.00 | 57 | 1014.2 |
| 20260502091503 | 14 | 82 | 1.6 | 6.4 | 0.00 | 0.00 | 0.00 | 66 | 1014.5 |
| 20260502091003 | 15 | 115 | 1.6 | 4.8 | 0.00 | 0.00 | 0.00 | 67 | 1014.6 |
| 20260502090503 | 14 | 122 | 1.6 | 4.8 | 0.00 | 0.00 | 0.00 | 69 | 1014.6 |
| 20260502071503 | 10 | 121 | 1.6 | 3.2 | 0.00 | 0.00 | 0.00 | 89 | 1015.4 |
| 20260502071003 | 10 | 116 | 1.6 | 3.2 | 0.00 | 0.00 | 0.00 | 91 | 1015.3 |
| 20260502070503 | 10 | 121 | 1.6 | 3.2 | 0.00 | 0.00 | 0.00 | 92 | 1015.2 |
| 20260502070003 | 10 | 125 | 1.6 | 3.2 | 0.00 | 0.00 | 0.00 | 93 | 1015.2 |
| 20260502065503 | 10 | 116 | 0.0 | 3.2 | 0.00 | 0.00 | 0.00 | 94 | 1015.1 |
| 20260502065003 | 9 | 105 | 0.0 | 3.2 | 0.00 | 0.00 | 0.00 | 95 | 1015.2 |
| 20260502064504 | 10 | 107 | 0.0 | 3.2 | 0.00 | 0.00 | 0.00 | 95 | 1015.4 |
| 20260502064004 | 9 | 106 | 1.6 | 3.2 | 0.00 | 0.00 | 0.00 | 95 | 1015.0 |
| 20260502063503 | 8 | 104 | 1.6 | 3.2 | 0.00 | 0.00 | 0.00 | 95 | 1015.5 |
| 20260502063003 | 8 | 102 | 1.6 | 3.2 | 0.00 | 0.00 | 0.00 | 95 | 1015.4 |
| 20260502062715 | 8 | 99 | 1.6 | 3.2 | 0.00 | 0.00 | 0.00 | 95 | 1015.6 |
| 20260502062003 | 8 | 101 | 1.6 | 3.2 | 0.00 | 0.00 | 0.00 | 95 | 1015.5 |
| 20260502061503 | 8 | 101 | 1.6 | 3.2 | 0.00 | 0.00 | 0.00 | 95 | 1015.4 |
| 20260502061213 | 8 | 103 | 1.6 | 3.2 | 0.00 | 0.00 | 0.00 | 95 | 1015.5 |
| 20260502060503 | 7 | 105 | 1.6 | 3.2 | 0.00 | 0.00 | 0.00 | 95 | 1015.6 |
| 20260502060003 | 7 | 105 | 1.6 | 3.2 | 0.00 | 0.00 | 0.00 | 95 | 1015.6 |
| 20260502055503 | 7 | 107 | 1.6 | 3.2 | 0.00 | 0.00 | 0.00 | 95 | 1015.6 |
| 20260502055215 | 7 | 105 | 1.6 | 3.2 | 0.00 | 0.00 | 0.00 | 95 | 1015.6 |
| 20260502054503 | 7 | 109 | 1.6 | 3.2 | 0.00 | 0.00 | 0.00 | 95 | 1015.7 |
| 20260502054004 | 6 | 111 | 1.6 | 3.2 | 0.00 | 0.00 | 0.00 | 95 | 1015.5 |
| 20260502053714 | 6 | 109 | 1.6 | 3.2 | 0.00 | 0.00 | 0.00 | 95 | 1015.5 |
| 20260502053003 | 6 | 106 | 1.6 | 3.2 | 0.00 | 0.00 | 0.00 | 94 | 1015.3 |
| 20260502052503 | 6 | 106 | 1.6 | 3.2 | 0.00 | 0.00 | 0.00 | 94 | 1015.4 |
| 20260502052003 | 6 | 105 | 1.6 | 3.2 | 0.00 | 0.00 | 0.00 | 94 | 1015.3 |
| 20260502051503 | 6 | 105 | 1.6 | 3.2 | 0.00 | 0.00 | 0.00 | 94 | 1015.3 |
| 20260502051214 | 6 | 104 | 1.6 | 3.2 | 0.00 | 0.00 | 0.00 | 94 | 1015.3 |
| 20260502050503 | 6 | 108 | 1.6 | 3.2 | 0.00 | 0.00 | 0.00 | 94 | 1015.3 |
| 20260502050003 | 6 | 108 | 1.6 | 3.2 | 0.00 | 0.00 | 0.00 | 94 | 1015.5 |
| 20260502045503 | 6 | 106 | 1.6 | 3.2 | 0.00 | 0.00 | 0.00 | 94 | 1015.3 |
| 20260502045003 | 5 | 97 | 1.6 | 3.2 | 0.00 | 0.00 | 0.00 | 93 | 1015.4 |
| 20260502044504 | 5 | 97 | 1.6 | 3.2 | 0.00 | 0.00 | 0.00 | 93 | 1015.4 |
| 20260502044003 | 5 | 96 | 1.6 | 3.2 | 0.00 | 0.00 | 0.00 | 93 | 1015.5 |
| 20260502043503 | 5 | 81 | 1.6 | 3.2 | 0.00 | 0.00 | 0.00 | 93 | 1015.4 |
| 20260502043003 | 6 | 83 | 1.6 | 3.2 | 0.00 | 0.00 | 0.00 | 93 | 1015.4 |
| 20260502042716 | 6 | 92 | 1.6 | 3.2 | 0.00 | 0.00 | 0.00 | 93 | 1015.6 |
| 20260502042004 | 5 | 96 | 1.6 | 3.2 | 0.00 | 0.00 | 0.00 | 93 | 1015.6 |
| 20260502041503 | 6 | 97 | 1.6 | 3.2 | 0.00 | 0.00 | 0.00 | 93 | 1015.6 |
| 20260502041003 | 6 | 103 | 1.6 | 3.2 | 0.00 | 0.00 | 0.00 | 93 | 1015.6 |
| 20260502040713 | 6 | 104 | 1.6 | 3.2 | 0.00 | 0.00 | 0.00 | 93 | 1015.6 |
| 20260502040216 | 6 | 105 | 1.6 | 3.2 | 0.00 | 0.00 | 0.00 | 93 | 1015.7 |
| 20260502035714 | 6 | 96 | 1.6 | 3.2 | 0.00 | 0.00 | 0.00 | 93 | 1015.9 |
| 20260502035003 | 6 | 104 | 1.6 | 3.2 | 0.00 | 0.00 | 0.00 | 93 | 1016.0 |
| 20260502034503 | 6 | 114 | 1.6 | 3.2 | 0.00 | 0.00 | 0.00 | 93 | 1015.9 |
| 20260502034003 | 6 | 110 | 1.6 | 3.2 | 0.00 | 0.00 | 0.00 | 93 | 1016.0 |
| 20260502033503 | 6 | 108 | 1.6 | 3.2 | 0.00 | 0.00 | 0.00 | 93 | 1015.7 |
| 20260502033003 | 6 | 102 | 1.6 | 3.2 | 0.00 | 0.00 | 0.00 | 93 | 1016.0 |
| 20260502032503 | 7 | 99 | 1.6 | 3.2 | 0.00 | 0.00 | 0.00 | 93 | 1016.0 |
| 20260502032003 | 7 | 102 | 1.6 | 3.2 | 0.00 | 0.00 | 0.00 | 93 | 1016.0 |
| 20260502031503 | 7 | 100 | 1.6 | 3.2 | 0.00 | 0.00 | 0.00 | 93 | 1015.9 |
| 20260502031003 | 7 | 100 | 1.6 | 3.2 | 0.00 | 0.00 | 0.00 | 93 | 1015.7 |
| 20260502030713 | 7 | 100 | 1.6 | 3.2 | 0.00 | 0.00 | 0.00 | 93 | 1015.8 |
| 20260502030003 | 7 | 103 | 1.6 | 3.2 | 0.00 | 0.00 | 0.00 | 93 | 1015.9 |
| 20260502025714 | 7 | 104 | 1.6 | 3.2 | 0.00 | 0.00 | 0.00 | 92 | 1015.8 |
| 20260502025217 | 7 | 100 | 1.6 | 3.2 | 0.00 | 0.00 | 0.00 | 92 | 1015.7 |
| 20260502024503 | 7 | 101 | 1.6 | 3.2 | 0.00 | 0.00 | 0.00 | 92 | 1015.8 |
| 20260502024213 | 7 | 103 | 1.6 | 3.2 | 0.00 | 0.00 | 0.00 | 92 | 1015.9 |
| 20260502023716 | 7 | 100 | 1.6 | 3.2 | 0.00 | 0.00 | 0.00 | 91 | 1015.8 |
| 20260502023214 | 7 | 99 | 1.6 | 3.2 | 0.00 | 0.00 | 0.00 | 91 | 1015.9 |
| 20260502022503 | 7 | 102 | 1.6 | 3.2 | 0.00 | 0.00 | 0.00 | 91 | 1015.8 |
| 20260502022215 | 7 | 102 | 1.6 | 3.2 | 0.00 | 0.00 | 0.00 | 90 | 1016.0 |
| 20260502021503 | 7 | 101 | 1.6 | 3.2 | 0.00 | 0.00 | 0.00 | 90 | 1016.2 |
| 20260502021003 | 7 | 102 | 1.6 | 3.2 | 0.00 | 0.00 | 0.00 | 90 | 1016.1 |
| 20260502020503 | 7 | 104 | 1.6 | 3.2 | 0.00 | 0.00 | 0.00 | 90 | 1016.2 |
| 20260502020004 | 8 | 109 | 1.6 | 3.2 | 0.00 | 0.00 | 0.00 | 90 | 1016.0 |
| 20260502015504 | 8 | 106 | 0.0 | 3.2 | 0.00 | 0.00 | 0.00 | 90 | 1016.1 |
| 20260502015003 | 8 | 88 | 0.0 | 3.2 | 0.00 | 0.00 | 0.00 | 90 | 1016.3 |
| 20260502014503 | 8 | 93 | 1.6 | 3.2 | 0.00 | 0.00 | 0.00 | 90 | 1016.2 |
| 20260502014003 | 8 | 97 | 0.0 | 3.2 | 0.00 | 0.00 | 0.00 | 90 | 1016.4 |
| 20260502013503 | 8 | 82 | 0.0 | 3.2 | 0.00 | 0.00 | 0.00 | 90 | 1016.3 |
| 20260502013003 | 8 | 90 | 0.0 | 3.2 | 0.00 | 0.00 | 0.00 | 90 | 1016.3 |
| 20260502012503 | 9 | 108 | 0.0 | 3.2 | 0.00 | 0.00 | 0.00 | 90 | 1016.4 |
| 20260502012216 | 9 | 115 | 1.6 | 3.2 | 0.00 | 0.00 | 0.00 | 90 | 1016.3 |
| 20260502011503 | 9 | 119 | 1.6 | 3.2 | 0.00 | 0.00 | 0.00 | 90 | 1016.3 |
| 20260502011003 | 9 | 120 | 1.6 | 3.2 | 0.00 | 0.00 | 0.00 | 90 | 1016.7 |
| 20260502010504 | 9 | 122 | 1.6 | 3.2 | 0.00 | 0.00 | 0.00 | 90 | 1016.6 |
| 20260502010003 | 10 | 125 | 1.6 | 3.2 | 0.00 | 0.00 | 0.00 | 90 | 1016.6 |
| 20260502005503 | 10 | 125 | 1.6 | 3.2 | 0.00 | 0.00 | 0.00 | 90 | 1016.9 |
| 20260502005003 | 10 | 124 | 1.6 | 3.2 | 0.00 | 0.00 | 0.00 | 89 | 1016.8 |
| 20260502004503 | 10 | 125 | 1.6 | 3.2 | 0.00 | 0.00 | 0.00 | 89 | 1016.9 |
| 20260502004003 | 10 | 124 | 1.6 | 3.2 | 0.00 | 0.00 | 0.00 | 89 | 1016.7 |
| 20260502003503 | 10 | 122 | 1.6 | 3.2 | 0.00 | 0.00 | 0.00 | 89 | 1016.9 |
| 20260502003003 | 10 | 121 | 1.6 | 3.2 | 0.00 | 0.00 | 0.00 | 89 | 1016.9 |
| 20260502002504 | 10 | 124 | 1.6 | 3.2 | 0.00 | 0.00 | 0.00 | 88 | 1017.0 |
| 20260502002003 | 10 | 130 | 1.6 | 3.2 | 0.00 | 0.00 | 0.00 | 88 | 1016.7 |
| 20260502001503 | 10 | 131 | 1.6 | 3.2 | 0.00 | 0.00 | 0.00 | 88 | 1016.8 |
| 20260502001217 | 10 | 132 | 1.6 | 3.2 | 0.00 | 0.00 | 0.00 | 88 | 1016.8 |
| 20260502000503 | 10 | 127 | 1.6 | 3.2 | 0.00 | 0.00 | 0.00 | 88 | 1016.8 |
| 20260502000003 | 10 | 127 | 1.6 | 3.2 | 0.00 | 0.00 | 0.00 | 88 | 1016.9 |
| 20260501235503 | 10 | 137 | 1.6 | 4.8 | 0.00 | 0.00 | 0.00 | 87 | 1016.8 |
| 20260501235003 | 10 | 135 | 1.6 | 4.8 | 0.00 | 0.00 | 0.00 | 87 | 1017.0 |
| 20260501234503 | 10 | 129 | 1.6 | 4.8 | 0.00 | 0.00 | 0.00 | 87 | 1016.9 |
| 20260501234003 | 10 | 127 | 1.6 | 3.2 | 0.00 | 0.00 | 0.00 | 86 | 1017.2 |
| 20260501233503 | 10 | 132 | 1.6 | 4.8 | 0.00 | 0.00 | 0.00 | 86 | 1017.0 |
| 20260501233003 | 11 | 143 | 1.6 | 4.8 | 0.00 | 0.00 | 0.00 | 85 | 1017.3 |
| 20260501232503 | 11 | 149 | 1.6 | 6.4 | 0.00 | 0.00 | 0.00 | 85 | 1017.1 |
| 20260501232003 | 11 | 147 | 1.6 | 6.4 | 0.00 | 0.00 | 0.00 | 84 | 1017.2 |
| 20260501231503 | 11 | 147 | 1.6 | 6.4 | 0.00 | 0.00 | 0.00 | 84 | 1017.4 |
| 20260501231003 | 11 | 142 | 1.6 | 4.8 | 0.00 | 0.00 | 0.00 | 84 | 1017.4 |
| 20260501230503 | 11 | 138 | 1.6 | 4.8 | 0.00 | 0.00 | 0.00 | 83 | 1017.5 |
| 20260501230008 | 11 | 147 | 1.6 | 6.4 | 0.00 | 0.00 | 0.00 | 83 | 1017.3 |
| 20260501225503 | 11 | 141 | 3.2 | 6.4 | 0.00 | 0.00 | 0.00 | 83 | 1017.3 |
| 20260501225003 | 11 | 141 | 1.6 | 4.8 | 0.00 | 0.00 | 0.00 | 83 | 1017.2 |
| 20260501224503 | 11 | 153 | 1.6 | 4.8 | 0.00 | 0.00 | 0.00 | 82 | 1017.2 |
| 20260501224003 | 11 | 147 | 1.6 | 4.8 | 0.00 | 0.00 | 0.00 | 82 | 1017.2 |
| 20260501223503 | 11 | 135 | 1.6 | 4.8 | 0.00 | 0.00 | 0.00 | 82 | 1017.2 |
| 20260501223003 | 11 | 147 | 1.6 | 4.8 | 0.00 | 0.00 | 0.00 | 81 | 1017.2 |
| 20260501222503 | 11 | 153 | 1.6 | 4.8 | 0.00 | 0.00 | 0.00 | 81 | 1017.1 |
| 20260501222003 | 11 | 144 | 1.6 | 4.8 | 0.00 | 0.00 | 0.00 | 81 | 1017.3 |
| 20260501221503 | 11 | 141 | 3.2 | 4.8 | 0.00 | 0.00 | 0.00 | 81 | 1017.2 |
| 20260501221003 | 11 | 137 | 3.2 | 4.8 | 0.00 | 0.00 | 0.00 | 80 | 1017.3 |
| 20260501220503 | 11 | 147 | 3.2 | 4.8 | 0.00 | 0.00 | 0.00 | 80 | 1017.1 |
| 20260501220215 | 11 | 151 | 3.2 | 4.8 | 0.00 | 0.00 | 0.00 | 80 | 1017.2 |
| 20260501215503 | 11 | 142 | 1.6 | 4.8 | 0.00 | 0.00 | 0.00 | 80 | 1017.1 |
| 20260501215003 | 11 | 143 | 3.2 | 4.8 | 0.00 | 0.00 | 0.00 | 80 | 1017.2 |
| 20260501214713 | 11 | 144 | 3.2 | 4.8 | 0.00 | 0.00 | 0.00 | 80 | 1017.1 |
| 20260501214003 | 11 | 142 | 1.6 | 4.8 | 0.00 | 0.00 | 0.00 | 80 | 1017.1 |
| 20260501213503 | 11 | 139 | 1.6 | 4.8 | 0.00 | 0.00 | 0.00 | 80 | 1017.0 |
| 20260501213003 | 12 | 147 | 1.6 | 4.8 | 0.00 | 0.00 | 0.00 | 80 | 1017.1 |
| 20260501212503 | 12 | 153 | 1.6 | 4.8 | 0.00 | 0.00 | 0.00 | 80 | 1017.1 |
| 20260501212003 | 12 | 152 | 1.6 | 4.8 | 0.00 | 0.00 | 0.00 | 80 | 1017.1 |
| 20260501211503 | 12 | 147 | 1.6 | 6.4 | 0.00 | 0.00 | 0.00 | 80 | 1017.1 |
| 20260501211003 | 12 | 144 | 1.6 | 6.4 | 0.00 | 0.00 | 0.00 | 80 | 1017.0 |
| 20260501210503 | 12 | 158 | 1.6 | 3.2 | 0.00 | 0.00 | 0.00 | 80 | 1017.1 |
| 20260501210003 | 12 | 159 | 1.6 | 4.8 | 0.00 | 0.00 | 0.00 | 81 | 1017.1 |
| 20260501205503 | 12 | 145 | 1.6 | 4.8 | 0.00 | 0.00 | 0.00 | 81 | 1017.2 |
| 20260501205003 | 12 | 143 | 1.6 | 4.8 | 0.00 | 0.00 | 0.00 | 81 | 1017.3 |
| 20260501204503 | 12 | 149 | 1.6 | 4.8 | 0.00 | 0.00 | 0.00 | 81 | 1017.4 |
| 20260501204003 | 12 | 155 | 1.6 | 4.8 | 0.00 | 0.00 | 0.00 | 81 | 1017.2 |
| 20260501203503 | 12 | 151 | 1.6 | 4.8 | 0.00 | 0.00 | 0.00 | 81 | 1017.0 |
| 20260501203003 | 12 | 147 | 1.6 | 4.8 | 0.00 | 0.00 | 0.00 | 81 | 1017.2 |
| 20260501202503 | 13 | 157 | 1.6 | 4.8 | 0.00 | 0.00 | 0.00 | 82 | 1017.1 |
| 20260501202214 | 13 | 151 | 1.6 | 4.8 | 0.00 | 0.00 | 0.00 | 82 | 1017.1 |
| 20260501201717 | 13 | 141 | 1.6 | 4.8 | 0.00 | 0.00 | 0.00 | 82 | 1017.2 |
| 20260501201003 | 13 | 136 | 1.6 | 4.8 | 0.00 | 0.00 | 0.00 | 81 | 1017.1 |
| 20260501200503 | 13 | 135 | 1.6 | 3.2 | 0.00 | 0.00 | 0.00 | 82 | 1017.0 |
| 20260501200003 | 13 | 139 | 1.6 | 4.8 | 0.00 | 0.00 | 0.00 | 82 | 1017.2 |
| 20260501195503 | 13 | 146 | 1.6 | 4.8 | 0.00 | 0.00 | 0.00 | 81 | 1017.2 |